Tracking 31027 objects as of 19-Jul-2025
HD Live streaming from Space Station
objects crossing your sky now

FENGYUN 1C DEB

Track FENGYUN 1C DEB now!
10-day predictions


NORAD ID: 29874
Int'l Code: 1999-025FU
Perigee: 731.5 km
Apogee: 888.6 km
Inclination: 98.4 °
Period: 100.9 minutes
Semi major axis: 7181 km
RCS: 0.0288 m2 (small)
Launch date: May 10, 1999
Source: People's Republic of China (PRC)
Launch site: Taiyaun Space Center, China (TSC)

Note: This is SATELLITE DEBRIS
Your satellite tracking list
Your tracking list is empty




NASA's NSSDC Master Catalog

Two Line Element Set (TLE):
1 29874U 99025FU  25199.24737009  .00004335  00000-0  16986-2 0  9990
2 29874  98.3842 102.1266 0109342  63.7243  61.5298 14.26662351947432
Source of the keplerian elements: AFSPC